Location: Borowce
(50.8255°N, 19.6209°E)
Time: 21:35:18
(UTC+00:00)

BlueWalker 3 - Pass Details

Date: 19 May 2025
Orbit: 460 x 472 km, 53.2° (Epoch: 16 June)

Event Time Altitude Azimuth Distance (km) Brightness Sun altitude
Rises 19:27:56 0° 290° (WNW) 2,493 6.8 -7.8°
Reaches altitude 10° 19:30:05 10° 289° (WNW) 1,618 5.6 -8.1°
Maximum altitude 19:33:44 79° 203° (SSW) 479 1.8 -8.5°
Enters shadow 19:37:16 11° 117° (ESE) 1,573 3.9 -8.8°
